STARLINK-1067, 44771

Orbit data source: Space-Track

STARLINK-1067, 44771 is a payload satellite owned by SpaceX/Seattle (US) in LEO that was launched on Mon, 11 Nov 2019 UTC via an FALCON 9 launch vehicle from the Air Force Eastern Test Range (AFETR). Payload-class satellites include a variety of spacecraft equipped with specific instruments for various scientific and technological missions. These include communications satellites like Starlink; space stations such as the ISS; scientific satellites like the Hubble; Earth observation satellites from companies like Planet Labs, Umbra, and HawkEye 360; GPS; miniature CubeSats for education and research; and military/defense satellites.

Loading next visibility...
Identifier
44771, 2019-074BL
Orbit
LEO
Last TLE update
23 hours ago
Origin
Manufacturer
SpaceX/Seattle
Mission
Operational Commercial Communications
Bus & Motor
STARLINK, Unknown motor
Mass
260 kg wet, ~248 kg dry
Launch date (UTC)
2019-11-11 (6 years ago)
Launch vehicle
FALCON 9
Launch site
Air Force Eastern Test Range (AFETR)
Object type
Payload
Rocket body
Debris
Shape & HBR
Box + 1 Pan, 8.86 m
Radar Cross Section
13.562 m², Large (>1 m²)

Expand to show TLE details & history

TLE from 23 hours ago
0 STARLINK-1067
1 44771U 19074BL  25191.38024647  .00001222  00000-0  10092-3 0  9998
2 44771  53.0539 234.3895 0000942  86.3379 273.7718 15.06396554311672
Epoch: 2025-07-10T09:07Z
TLE epoch observation values (Epoch: 2025-07-10T09:07:33.295Z)
Latitude
0.00003°
Longitude
168.95343°
Altitude
548.058 km
Speed
7.589 km/s
True Right ascension
15h 37m 33s
True Declination
0° 00' 00"
Sunlit
Object was in full shadow at epoch
Visualization orbit readout
Latitude
5.45041°
Longitude
-19.45326°
Altitude
547.48 km
Speed
7.59 km/s
Apparent Right ascension
05h 13m 14s
Apparent Declination
-20° 40' 57"
Sunlit
Object is in daylight
Visualization observer readout
Local Sidereal Time
20:28:31
Azimuth
79.983° E
Elevation
-44.354°
Doppler factor
1
Orbital elements
Apogee altitude
548.145 km
Perigee altitude
546.841 km
Semi-major axis
6,925.63 km
Eccentricity
0.00009
Inclination
53.0539°
RAAN
234.3895°
Arg. of periapsis
86.3379°
True anomaly
Unknown
Mean anomaly
273.7718°
Eccentric anomaly
Unknown
Mean motion
3.76577 °/min
Orbital period
95.6 mins
BSTAR
0.00010092
Loading maneuver chart data...
Loading SW <> Apogee altitude chart data...

STARLINK-1067 Visibility forecast

Observer location: undefined°, undefined°

Span
Click to sort rows by Start time (UTC) header in descending order
Start Az.
Max El. time (UTC)
Max El. Az.
Max El.
End time (UTC)
End Az.
5 mins2025-07-11 11:04:01.002Z337.841° N2025-07-11 11:06:01.002Z15.453° NNE23.857°2025-07-11 11:09:01.002Z76.706° E
6 mins2025-07-11 12:44:01.002Z293.822° NW2025-07-11 12:46:01.002Z235.46° WSW39.882°2025-07-11 12:50:01.002Z146.084° SSE
5 mins2025-07-12 04:17:01.002Z173.049° S2025-07-12 04:19:01.002Z131.276° SE24.008°2025-07-12 04:22:01.002Z76.691° E
6 mins2025-07-12 05:56:01.002Z263.031° W2025-07-12 05:58:01.002Z308.571° NW34.308°2025-07-12 06:02:01.002Z38.765° NE
|